• In Czech Republic
  • List of Countries
  • For 7 days
  • Water Temperature
  • Satellite Maps
  • Weather Map
  • Weather Widgets
  • user-avatar
    Login

    Hourly Weather Arkalyk

    Today, 23 June, Saturday

    Time Temperature Precipitation Wind Pressure Humidity
    00:00 +17°C° 0 mm 2 mps 723 mmHg 58%
    01:00 +18°C° 0 mm 1 mps 723 mmHg 61%
    02:00 +17°C° 0 mm 2 mps 723 mmHg 62%
    03:00 +16°C° 0 mm 2 mps 723 mmHg 62%
    04:00 +17°C° 0 mm 2 mps 723 mmHg 64%
    05:00 +18°C° 0 mm 2 mps 723 mmHg 60%
    06:00 +19°C° 0 mm 3 mps 724 mmHg 56%
    07:00 +21°C° 0 mm 3 mps 724 mmHg 51%
    08:00 +22°C° 0 mm 3 mps 724 mmHg 48%
    09:00 +23°C° 0 mm 4 mps 724 mmHg 45%
    10:00 +23°C° 0 mm 5 mps 724 mmHg 43%
    11:00 +25°C° 0 mm 5 mps 724 mmHg 43%
    12:00 +25°C° 0 mm 4 mps 724 mmHg 43%
    13:00 +25°C° 0 mm 4 mps 724 mmHg 43%
    14:00 +25°C° 0 mm 4 mps 724 mmHg 43%
    15:00 +25°C° 0 mm 4 mps 724 mmHg 43%
    16:00 +25°C° 0 mm 4 mps 724 mmHg 43%
    17:00 +24°C° 0 mm 3 mps 724 mmHg 45%
    18:00 +24°C° 0 mm 3 mps 724 mmHg 47%
    19:00 +23°C° 0 mm 2 mps 724 mmHg 49%
    20:00 +23°C° 0 mm 2 mps 724 mmHg 50%
    21:00 +21°C° 0 mm 2 mps 724 mmHg 51%
    22:00 +22°C° 0 mm 1 mps 724 mmHg 51%
    23:00 +20°C° 0.1 mm 2 mps 724 mmHg 55%

    Tomorrow, 24 June, Sunday

    Time Temperature Precipitation Wind Pressure Humidity
    00:00 +19°C° 0.1 mm 2 mps 724 mmHg 59%
    01:00 +18°C° 0.1 mm 2 mps 724 mmHg 63%
    02:00 +18°C° 0 mm 2 mps 724 mmHg 66%
    03:00 +17°C° 0 mm 2 mps 724 mmHg 69%
    04:00 +17°C° 0 mm 2 mps 725 mmHg 72%
    05:00 +18°C° 0 mm 2 mps 725 mmHg 66%
    06:00 +20°C° 0 mm 2 mps 725 mmHg 61%
    07:00 +21°C° 0 mm 3 mps 725 mmHg 55%
    08:00 +22°C° 0 mm 3 mps 725 mmHg 51%
    09:00 +23°C° 0 mm 4 mps 725 mmHg 46%
    10:00 +25°C° 0 mm 4 mps 726 mmHg 41%
    11:00 +25°C° 0 mm 4 mps 726 mmHg 41%
    12:00 +25°C° 0 mm 5 mps 726 mmHg 41%
    13:00 +25°C° 0 mm 5 mps 726 mmHg 41%
    14:00 +25°C° 0 mm 5 mps 726 mmHg 42%
    15:00 +25°C° 0 mm 5 mps 726 mmHg 42%
    16:00 +23°C° 0 mm 5 mps 726 mmHg 43%
    17:00 +23°C° 0 mm 5 mps 726 mmHg 45%
    18:00 +23°C° 0 mm 4 mps 727 mmHg 46%
    19:00 +22°C° 0 mm 3 mps 727 mmHg 48%
    20:00 +21°C° 0.5 mm 3 mps 727 mmHg 54%
    21:00 +20°C° 0.5 mm 3 mps 727 mmHg 61%
    22:00 +18°C° 0.5 mm 3 mps 727 mmHg 67%
    23:00 +18°C° 0 mm 3 mps 727 mmHg 71%

    Day after tomorrow, 25 June, Monday

    Time Temperature Precipitation Wind Pressure Humidity
    00:00 +17°C° 0 mm 3 mps 727 mmHg 74%
    01:00 +17°C° 0 mm 3 mps 727 mmHg 78%
    02:00 +16°C° 0 mm 3 mps 728 mmHg 81%
    03:00 +15°C° 0 mm 4 mps 728 mmHg 84%
    04:00 +14°C° 0 mm 4 mps 728 mmHg 87%
    05:00 +15°C° 0 mm 4 mps 728 mmHg 80%
    06:00 +17°C° 0 mm 5 mps 728 mmHg 74%
    07:00 +19°C° 0 mm 6 mps 729 mmHg 67%
    08:00 +20°C° 0 mm 6 mps 729 mmHg 60%
    09:00 +22°C° 0 mm 6 mps 729 mmHg 53%
    10:00 +23°C° 0 mm 7 mps 729 mmHg 46%
    11:00 +24°C° 0 mm 7 mps 729 mmHg 44%
    12:00 +24°C° 0 mm 7 mps 729 mmHg 42%
    13:00 +24°C° 0 mm 7 mps 729 mmHg 40%
    14:00 +24°C° 0 mm 7 mps 729 mmHg 40%
    15:00 +24°C° 0 mm 6 mps 729 mmHg 39%
    16:00 +24°C° 0 mm 6 mps 729 mmHg 39%
    17:00 +25°C° 0 mm 5 mps 729 mmHg 41%
    18:00 +23°C° 0 mm 4 mps 729 mmHg 42%
    19:00 +24°C° 0 mm 3 mps 729 mmHg 44%
    20:00 +22°C° 0.1 mm 3 mps 729 mmHg 48%
    21:00 +21°C° 0.1 mm 3 mps 728 mmHg 51%
    22:00 +20°C° 0.1 mm 3 mps 728 mmHg 55%
    23:00 +19°C° 0.4 mm 3 mps 728 mmHg 60%

    26 June, Tuesday

    Time Temperature Precipitation Wind Pressure Humidity
    00:00 +19°C° 0.4 mm 3 mps 727 mmHg 66%
    01:00 +18°C° 0.4 mm 2 mps 727 mmHg 71%
    02:00 +18°C° 0.5 mm 3 mps 726 mmHg 74%
    03:00 +17°C° 0.5 mm 3 mps 726 mmHg 77%
    04:00 +15°C° 0.5 mm 4 mps 726 mmHg 80%
    05:00 +18°C° 0.3 mm 4 mps 726 mmHg 72%
    06:00 +19°C° 0.3 mm 5 mps 726 mmHg 63%
    07:00 +21°C° 0.3 mm 5 mps 726 mmHg 55%
    08:00 +21°C° 0.1 mm 6 mps 726 mmHg 51%
    09:00 +22°C° 0.1 mm 6 mps 726 mmHg 47%
    10:00 +23°C° 0.1 mm 6 mps 726 mmHg 43%
    11:00 +23°C° 0.4 mm 7 mps 726 mmHg 43%
    12:00 +23°C° 0.4 mm 7 mps 726 mmHg 43%
    13:00 +23°C° 0.4 mm 7 mps 726 mmHg 42%
    14:00 +23°C° 0.1 mm 7 mps 726 mmHg 43%
    15:00 +23°C° 0.1 mm 6 mps 726 mmHg 44%
    16:00 +22°C° 0.1 mm 5 mps 726 mmHg 45%
    17:00 +22°C° 0.2 mm 5 mps 726 mmHg 47%
    18:00 +22°C° 0.2 mm 4 mps 726 mmHg 49%
    19:00 +21°C° 0.2 mm 3 mps 726 mmHg 51%
    20:00 +20°C° 0 mm 3 mps 726 mmHg 55%
    21:00 +19°C° 0 mm 3 mps 726 mmHg 58%
    22:00 +18°C° 0 mm 3 mps 726 mmHg 62%
    23:00 +18°C° 0 mm 3 mps 725 mmHg 67%

    27 June, Wednesday

    Time Temperature Precipitation Wind Pressure Humidity
    00:00 +17°C° 0 mm 3 mps 725 mmHg 71%
    01:00 +17°C° 0 mm 3 mps 725 mmHg 76%
    02:00 +17°C° 0.3 mm 3 mps 724 mmHg 80%
    03:00 +17°C° 0.3 mm 3 mps 724 mmHg 84%
    04:00 +16°C° 0.3 mm 3 mps 724 mmHg 88%
    05:00 +17°C° 0.4 mm 3 mps 724 mmHg 86%
    06:00 +17°C° 0.4 mm 3 mps 724 mmHg 85%
    07:00 +17°C° 0.4 mm 2 mps 724 mmHg 84%
    08:00 +18°C° 0.2 mm 2 mps 724 mmHg 78%
    09:00 +19°C° 0.2 mm 2 mps 724 mmHg 73%
    10:00 +20°C° 0.2 mm 2 mps 724 mmHg 67%
    11:00 +21°C° 0 mm 2 mps 723 mmHg 62%
    12:00 +23°C° 0 mm 2 mps 723 mmHg 57%
    13:00 +24°C° 0 mm 2 mps 723 mmHg 53%
    14:00 +24°C° 0 mm 2 mps 723 mmHg 51%
    15:00 +24°C° 0 mm 1 mps 723 mmHg 50%
    16:00 +25°C° 0 mm 1 mps 723 mmHg 49%
    17:00 +24°C° 0 mm 1 mps 723 mmHg 51%
    18:00 +24°C° 0 mm 1 mps 723 mmHg 53%
    19:00 +24°C° 0 mm 1 mps 723 mmHg 56%
    20:00 +23°C° 0 mm 1 mps 723 mmHg 60%
    21:00 +22°C° 0 mm 1 mps 723 mmHg 63%
    22:00 +21°C° 0 mm 1 mps 723 mmHg 67%
    23:00 +20°C° 0 mm 1 mps 723 mmHg 69%

    28 June, Thursday

    Time Temperature Precipitation Wind Pressure Humidity
    00:00 +20°C° 0 mm 1 mps 722 mmHg 70%
    01:00 +20°C° 0 mm 1 mps 722 mmHg 71%
    02:00 +19°C° 0 mm 1 mps 722 mmHg 73%
    03:00 +19°C° 0 mm 1 mps 722 mmHg 74%
    04:00 +19°C° 0 mm 1 mps 722 mmHg 75%
    05:00 +20°C° 0.2 mm 1 mps 723 mmHg 69%
    06:00 +21°C° 0.2 mm 2 mps 723 mmHg 63%
    07:00 +23°C° 0.2 mm 2 mps 723 mmHg 57%
    08:00 +24°C° 0.1 mm 2 mps 723 mmHg 53%
    09:00 +25°C° 0.1 mm 2 mps 723 mmHg 48%
    10:00 +26°C° 0.1 mm 2 mps 723 mmHg 43%
    11:00 +26°C° 0.1 mm 2 mps 723 mmHg 43%
    12:00 +27°C° 0.1 mm 3 mps 723 mmHg 42%
    13:00 +27°C° 0.1 mm 3 mps 723 mmHg 42%
    14:00 +27°C° 0 mm 3 mps 723 mmHg 42%
    15:00 +27°C° 0 mm 4 mps 723 mmHg 43%
    16:00 +27°C° 0 mm 4 mps 723 mmHg 44%
    17:00 +26°C° 0.1 mm 4 mps 723 mmHg 47%
    18:00 +25°C° 0.1 mm 4 mps 723 mmHg 50%
    19:00 +25°C° 0.1 mm 4 mps 723 mmHg 54%
    20:00 +22°C° 0.4 mm 3 mps 723 mmHg 60%
    21:00 +21°C° 0.4 mm 3 mps 723 mmHg 66%
    22:00 +20°C° 0.4 mm 3 mps 723 mmHg 72%
    23:00 +19°C° 0 mm 3 mps 722 mmHg 74%
    Show more